Time,TemperatureF,DewpointF,PressureIn,WindDirection,WindDirectionDegrees,WindSpeedMPH,WindSpeedGustMPH,Humidity,HourlyPrecipIn,Conditions,Clouds,dailyrainin,SoftwareType,DateUTC
2013-02-21 00:04:00,24.8,8.6,29.80,NNW,346,12.7,-999.9,50,-99.99,,,-99.99,,2013-02-21 05:04:00,
2013-02-21 00:10:00,24.8,10.4,29.80,NNW,347,5.8,-999.9,54,-99.99,,,-99.99,,2013-02-21 05:10:00,
2013-02-21 00:14:00,24.8,10.4,29.80,NNW,347,5.8,-999.9,54,-99.99,,,-99.99,,2013-02-21 05:14:00,
2013-02-21 00:18:00,24.8,10.4,29.80,NNW,347,5.8,-999.9,54,-99.99,,,-99.99,,2013-02-21 05:18:00,
2013-02-21 00:20:00,24.8,8.6,29.81,NNW,329,6.9,-999.9,50,-99.99,,,-99.99,,2013-02-21 05:20:00,
2013-02-21 00:28:00,24.8,8.6,29.81,NNW,329,6.9,-999.9,50,-99.99,,,-99.99,,2013-02-21 05:28:00,
2013-02-21 00:46:00,24.8,10.4,29.81,North,358,8.1,-999.9,54,-99.99,,,-99.99,,2013-02-21 05:46:00,
2013-02-21 01:23:00,24.8,10.4,29.81,NNW,340,1.2,-999.9,54,-99.99,,,-99.99,,2013-02-21 06:23:00,
2013-02-21 01:29:00,24.8,10.4,29.81,NNW,340,1.2,-999.9,54,-99.99,,,-99.99,,2013-02-21 06:29:00,
2013-02-21 01:54:00,24.8,12.2,29.81,North,6,4.6,-999.9,59,-99.99,,,-99.99,,2013-02-21 06:54:00,
2013-02-21 02:00:00,24.8,10.4,29.80,NNE,16,5.8,-999.9,54,-99.99,,,-99.99,,2013-02-21 07:00:00,
2013-02-21 02:08:00,24.8,10.4,29.80,NNE,16,5.8,-999.9,54,-99.99,,,-99.99,,2013-02-21 07:08:00,
2013-02-21 02:14:00,24.8,10.4,29.81,NNW,341,17.3,-999.9,54,-99.99,,,-99.99,,2013-02-21 07:14:00,
2013-02-21 02:20:00,24.8,10.4,29.81,NNW,341,17.3,-999.9,54,-99.99,,,-99.99,,2013-02-21 07:20:00,
2013-02-21 02:28:00,24.8,10.4,29.81,NNW,337,20.7,-999.9,54,-99.99,,,-99.99,,2013-02-21 07:28:00,
2013-02-21 02:34:00,24.8,10.4,29.81,West,271,3.5,-999.9,54,-99.99,,,-99.99,,2013-02-21 07:34:00,
2013-02-21 02:40:00,24.8,10.4,29.81,NNW,337,13.8,-999.9,54,-99.99,,,-99.99,,2013-02-21 07:40:00,
2013-02-21 02:48:00,24.8,10.4,29.81,NNW,337,13.8,-999.9,54,-99.99,,,-99.99,,2013-02-21 07:48:00,
2013-02-21 02:54:00,24.8,10.4,29.80,NNW,340,18.4,-999.9,54,-99.99,,,-99.99,,2013-02-21 07:54:00,
2013-02-21 03:00:00,24.8,10.4,29.81,NW,317,5.8,-999.9,54,-99.99,,,-99.99,,2013-02-21 08:00:00,
2013-02-21 03:08:00,24.8,10.4,29.81,NW,317,5.8,-999.9,54,-99.99,,,-99.99,,2013-02-21 08:08:00,
2013-02-21 03:14:00,23.0,8.6,29.80,NNW,333,9.2,-999.9,54,-99.99,,,-99.99,,2013-02-21 08:14:00,
2013-02-21 03:20:00,24.8,10.4,29.80,NNW,331,3.5,-999.9,54,-99.99,,,-99.99,,2013-02-21 08:20:00,
2013-02-21 03:28:00,24.8,10.4,29.80,NNW,331,3.5,-999.9,54,-99.99,,,-99.99,,2013-02-21 08:28:00,
2013-02-21 03:34:00,24.8,10.4,29.80,NNW,342,11.5,-999.9,54,-99.99,,,-99.99,,2013-02-21 08:34:00,
2013-02-21 03:40:00,24.8,10.4,29.80,NW,320,10.4,-999.9,54,-99.99,,,-99.99,,2013-02-21 08:40:00,
2013-02-21 03:48:00,24.8,10.4,29.80,NW,320,10.4,-999.9,54,-99.99,,,-99.99,,2013-02-21 08:48:00,
2013-02-21 03:53:00,24.8,10.4,29.80,NNW,337,16.1,-999.9,54,-99.99,,,-99.99,,2013-02-21 08:53:00,
2013-02-21 04:00:00,24.8,10.4,29.80,NNW,341,13.8,-999.9,54,-99.99,,,-99.99,,2013-02-21 09:00:00,
2013-02-21 04:07:00,24.8,10.4,29.80,NNW,341,13.8,-999.9,54,-99.99,,,-99.99,,2013-02-21 09:07:00,
2013-02-21 04:18:00,24.8,10.4,29.80,NW,310,15.0,-999.9,54,-99.99,,,-99.99,,2013-02-21 09:18:00,
2013-02-21 04:24:00,24.8,10.4,29.80,NW,304,2.3,-999.9,54,-99.99,,,-99.99,,2013-02-21 09:24:00,
2013-02-21 04:30:00,24.8,10.4,29.80,NW,304,2.3,-999.9,54,-99.99,,,-99.99,,2013-02-21 09:30:00,
2013-02-21 04:38:00,24.8,10.4,29.80,NW,316,8.1,-999.9,54,-99.99,,,-99.99,,2013-02-21 09:38:00,
2013-02-21 04:44:00,24.8,10.4,29.80,NW,326,13.8,-999.9,54,-99.99,,,-99.99,,2013-02-21 09:44:00,
2013-02-21 04:50:00,24.8,12.2,29.81,NW,316,3.5,-999.9,59,-99.99,,,-99.99,,2013-02-21 09:50:00,
2013-02-21 05:00:00,24.8,10.4,29.81,NW,318,13.8,-999.9,54,-99.99,,,-99.99,,2013-02-21 10:00:00,
2013-02-21 05:08:00,24.8,10.4,29.81,NW,318,13.8,-999.9,54,-99.99,,,-99.99,,2013-02-21 10:08:00,
2013-02-21 05:14:00,24.8,12.2,29.81,NW,304,4.6,-999.9,59,-99.99,,,-99.99,,2013-02-21 10:14:00,
2013-02-21 05:20:00,24.8,12.2,29.81,NW,304,4.6,-999.9,59,-99.99,,,-99.99,,2013-02-21 10:20:00,
2013-02-21 05:28:00,24.8,12.2,29.82,NNW,343,15.0,-999.9,59,-99.99,,,-99.99,,2013-02-21 10:28:00,
2013-02-21 05:34:00,24.8,12.2,29.82,WNW,303,2.3,-999.9,59,-99.99,,,-99.99,,2013-02-21 10:34:00,
2013-02-21 05:40:00,24.8,12.2,29.82,NNW,331,11.5,-999.9,59,-99.99,,,-99.99,,2013-02-21 10:40:00,
2013-02-21 05:48:00,24.8,12.2,29.82,NNW,331,11.5,-999.9,59,-99.99,,,-99.99,,2013-02-21 10:48:00,
2013-02-21 05:54:00,24.8,12.2,29.82,North,349,13.8,-999.9,59,-99.99,,,-99.99,,2013-02-21 10:54:00,
2013-02-21 06:00:00,24.8,10.4,29.82,NNW,333,17.3,-999.9,54,-99.99,,,-99.99,,2013-02-21 11:00:00,
2013-02-21 06:08:00,24.8,10.4,29.82,NNW,333,17.3,-999.9,54,-99.99,,,-99.99,,2013-02-21 11:08:00,
2013-02-21 06:14:00,24.8,10.4,29.83,NNW,341,4.6,-999.9,54,-99.99,,,-99.99,,2013-02-21 11:14:00,
2013-02-21 06:20:00,24.8,10.4,29.83,NNW,341,4.6,-999.9,54,-99.99,,,-99.99,,2013-02-21 11:20:00,
2013-02-21 06:28:00,24.8,10.4,29.83,NNW,347,11.5,-999.9,54,-99.99,,,-99.99,,2013-02-21 11:28:00,
2013-02-21 06:33:00,24.8,10.4,29.82,NW,325,10.4,-999.9,54,-99.99,,,-99.99,,2013-02-21 11:33:00,
2013-02-21 06:40:00,24.8,10.4,29.82,NW,325,10.4,-999.9,54,-99.99,,,-99.99,,2013-02-21 11:40:00,
2013-02-21 06:48:00,24.8,10.4,29.83,NW,324,13.8,-999.9,54,-99.99,,,-99.99,,2013-02-21 11:48:00,
2013-02-21 06:54:00,24.8,10.4,29.82,NNW,336,18.4,-999.9,54,-99.99,,,-99.99,,2013-02-21 11:54:00,
2013-02-21 07:00:00,24.8,10.4,29.83,North,9,2.3,-999.9,54,-99.99,,,-99.99,,2013-02-21 12:00:00,
2013-02-21 07:08:00,24.8,10.4,29.83,North,9,2.3,-999.9,54,-99.99,,,-99.99,,2013-02-21 12:08:00,
2013-02-21 07:14:00,24.8,10.4,29.83,NW,313,12.7,-999.9,54,-99.99,,,-99.99,,2013-02-21 12:14:00,
2013-02-21 07:20:00,24.8,10.4,29.83,NW,313,12.7,-999.9,54,-99.99,,,-99.99,,2013-02-21 12:20:00,
2013-02-21 07:28:00,24.8,10.4,29.83,NW,326,8.1,-999.9,54,-99.99,,,-99.99,,2013-02-21 12:28:00,
2013-02-21 07:34:00,24.8,10.4,29.82,NNW,335,19.6,-999.9,54,-99.99,,,-99.99,,2013-02-21 12:34:00,
2013-02-21 07:40:00,24.8,10.4,29.81,NW,311,13.8,-999.9,54,-99.99,,,-99.99,,2013-02-21 12:40:00,
2013-02-21 07:48:00,24.8,10.4,29.81,NW,311,13.8,-999.9,54,-99.99,,,-99.99,,2013-02-21 12:48:00,
2013-02-21 07:54:00,24.8,10.4,29.81,NW,313,8.1,-999.9,54,-99.99,,,-99.99,,2013-02-21 12:54:00,
2013-02-21 08:00:00,24.8,10.4,29.81,NNW,338,11.5,-999.9,54,-99.99,,,-99.99,,2013-02-21 13:00:00,
2013-02-21 08:10:00,24.8,10.4,29.81,NNW,338,11.5,-999.9,54,-99.99,,,-99.99,,2013-02-21 13:10:00,
2013-02-21 08:18:00,24.8,10.4,29.81,NNW,345,17.3,-999.9,54,-99.99,,,-99.99,,2013-02-21 13:18:00,
2013-02-21 08:24:00,24.8,10.4,29.81,NNW,342,11.5,-999.9,54,-99.99,,,-99.99,,2013-02-21 13:24:00,
2013-02-21 08:30:00,24.8,10.4,29.81,NNW,342,11.5,-999.9,54,-99.99,,,-99.99,,2013-02-21 13:30:00,
2013-02-21 08:38:00,24.8,10.4,29.81,NNW,328,11.5,-999.9,54,-99.99,,,-99.99,,2013-02-21 13:38:00,
2013-02-21 08:44:00,26.6,10.4,29.80,NW,318,15.0,-999.9,51,-99.99,,,-99.99,,2013-02-21 13:44:00,
2013-02-21 08:50:00,26.6,10.4,29.80,NW,314,12.7,-999.9,51,-99.99,,,-99.99,,2013-02-21 13:50:00,
2013-02-21 08:58:00,26.6,10.4,29.80,NW,314,12.7,-999.9,51,-99.99,,,-99.99,,2013-02-21 13:58:00,
2013-02-21 09:04:00,26.6,10.4,29.80,North,354,8.1,-999.9,51,-99.99,,,-99.99,,2013-02-21 14:04:00,
2013-02-21 09:10:00,26.6,10.4,29.80,North,354,8.1,-999.9,51,-99.99,,,-99.99,,2013-02-21 14:10:00,
2013-02-21 09:18:00,26.6,10.4,29.80,NNW,335,8.1,-999.9,51,-99.99,,,-99.99,,2013-02-21 14:18:00,
2013-02-21 09:24:00,26.6,10.4,29.79,NNW,337,16.1,-999.9,51,-99.99,,,-99.99,,2013-02-21 14:24:00,
2013-02-21 09:30:00,26.6,10.4,29.79,NNW,330,11.5,-999.9,51,-99.99,,,-99.99,,2013-02-21 14:30:00,
2013-02-21 09:38:00,26.6,10.4,29.79,NNW,330,11.5,-999.9,51,-99.99,,,-99.99,,2013-02-21 14:38:00,
2013-02-21 09:44:00,26.6,8.6,29.78,North,349,11.5,-999.9,47,-99.99,,,-99.99,,2013-02-21 14:44:00,
2013-02-21 09:50:00,28.4,10.4,29.78,NNW,339,21.9,-999.9,47,-99.99,,,-99.99,,2013-02-21 14:50:00,
2013-02-21 09:58:00,28.4,10.4,29.78,NNW,339,21.9,-999.9,47,-99.99,,,-99.99,,2013-02-21 14:58:00,
2013-02-21 10:04:00,28.4,10.4,29.78,NNW,337,17.3,-999.9,47,-99.99,,,-99.99,,2013-02-21 15:04:00,
2013-02-21 10:10:00,28.4,10.4,29.78,NNW,337,17.3,-999.9,47,-99.99,,,-99.99,,2013-02-21 15:10:00,
2013-02-21 10:17:00,28.4,8.6,29.78,NNW,346,19.6,-999.9,43,-99.99,,,-99.99,,2013-02-21 15:17:00,
2013-02-21 10:24:00,28.4,10.4,29.77,WNW,301,3.5,-999.9,47,-99.99,,,-99.99,,2013-02-21 15:24:00,
2013-02-21 10:30:00,28.4,8.6,29.77,NNW,343,15.0,-999.9,43,-99.99,,,-99.99,,2013-02-21 15:30:00,
2013-02-21 10:38:00,28.4,8.6,29.77,NNW,343,15.0,-999.9,43,-99.99,,,-99.99,,2013-02-21 15:38:00,
2013-02-21 10:44:00,28.4,8.6,29.78,NNW,344,19.6,-999.9,43,-99.99,,,-99.99,,2013-02-21 15:44:00,
2013-02-21 10:54:00,28.4,8.6,29.77,NNW,333,19.6,-999.9,43,-99.99,,,-99.99,,2013-02-21 15:54:00,
2013-02-21 11:04:00,30.2,10.4,29.77,North,4,9.2,-999.9,44,-99.99,,,-99.99,,2013-02-21 16:04:00,
2013-02-21 11:10:00,30.2,10.4,29.77,North,4,9.2,-999.9,44,-99.99,,,-99.99,,2013-02-21 16:10:00,
2013-02-21 11:18:00,30.2,10.4,29.77,North,354,9.2,-999.9,44,-99.99,,,-99.99,,2013-02-21 16:18:00,
2013-02-21 11:24:00,30.2,10.4,29.78,NNW,338,12.7,-999.9,44,-99.99,,,-99.99,,2013-02-21 16:24:00,
2013-02-21 11:30:00,30.2,10.4,29.78,NNW,338,12.7,-999.9,44,-99.99,,,-99.99,,2013-02-21 16:30:00,
2013-02-21 11:38:00,30.2,10.4,29.78,NNW,335,13.8,-999.9,44,-99.99,,,-99.99,,2013-02-21 16:38:00,
2013-02-21 11:44:00,30.2,10.4,29.78,NNW,330,21.9,-999.9,44,-99.99,,,-99.99,,2013-02-21 16:44:00,
2013-02-21 11:50:00,30.2,10.4,29.79,WNW,297,3.5,-999.9,44,-99.99,,,-99.99,,2013-02-21 16:50:00,
2013-02-21 11:58:00,30.2,10.4,29.79,WNW,297,3.5,-999.9,44,-99.99,,,-99.99,,2013-02-21 16:58:00,
2013-02-21 12:04:00,32.0,12.2,29.78,NW,326,13.8,-999.9,44,-99.99,,,-99.99,,2013-02-21 17:04:00,
2013-02-21 12:10:00,30.2,10.4,29.77,North,355,16.1,-999.9,44,-99.99,,,-99.99,,2013-02-21 17:10:00,
2013-02-21 12:18:00,30.2,10.4,29.77,North,355,16.1,-999.9,44,-99.99,,,-99.99,,2013-02-21 17:18:00,
2013-02-21 12:24:00,30.2,10.4,29.78,NNW,346,13.8,-999.9,44,-99.99,,,-99.99,,2013-02-21 17:24:00,
2013-02-21 12:30:00,32.0,12.2,29.78,NW,311,8.1,-999.9,44,-99.99,,,-99.99,,2013-02-21 17:30:00,
2013-02-21 12:38:00,32.0,12.2,29.78,NW,311,8.1,-999.9,44,-99.99,,,-99.99,,2013-02-21 17:38:00,
2013-02-21 12:44:00,30.2,10.4,29.78,NNW,327,18.4,-999.9,44,-99.99,,,-99.99,,2013-02-21 17:44:00,
2013-02-21 12:50:00,30.2,10.4,29.77,NNW,345,15.0,-999.9,44,-99.99,,,-99.99,,2013-02-21 17:50:00,
2013-02-21 12:58:00,30.2,10.4,29.77,NNW,345,15.0,-999.9,44,-99.99,,,-99.99,,2013-02-21 17:58:00,
2013-02-21 13:03:00,32.0,12.2,29.77,NNW,346,16.1,-999.9,44,-99.99,,,-99.99,,2013-02-21 18:03:00,
2013-02-21 13:10:00,32.0,12.2,29.76,North,350,18.4,-999.9,44,-99.99,,,-99.99,,2013-02-21 18:10:00,
2013-02-21 13:18:00,32.0,12.2,29.76,North,350,18.4,-999.9,44,-99.99,,,-99.99,,2013-02-21 18:18:00,
2013-02-21 13:24:00,32.0,12.2,29.76,NNW,347,17.3,-999.9,44,-99.99,,,-99.99,,2013-02-21 18:24:00,
2013-02-21 13:30:00,30.2,10.4,29.77,NNW,338,27.6,-999.9,44,-99.99,,,-99.99,,2013-02-21 18:30:00,
2013-02-21 13:38:00,30.2,10.4,29.77,NNW,338,27.6,-999.9,44,-99.99,,,-99.99,,2013-02-21 18:38:00,
2013-02-21 13:44:00,32.0,10.4,29.77,North,355,6.9,-999.9,41,-99.99,,,-99.99,,2013-02-21 18:44:00,
2013-02-21 13:50:00,32.0,10.4,29.77,North,355,6.9,-999.9,41,-99.99,,,-99.99,,2013-02-21 18:50:00,
2013-02-21 13:58:00,32.0,10.4,29.77,NNW,333,19.6,-999.9,41,-99.99,,,-99.99,,2013-02-21 18:58:00,
2013-02-21 14:04:00,32.0,10.4,29.77,NNW,338,24.2,-999.9,41,-99.99,,,-99.99,,2013-02-21 19:04:00,
2013-02-21 14:10:00,32.0,10.4,29.77,NNW,338,24.2,-999.9,41,-99.99,,,-99.99,,2013-02-21 19:10:00,
2013-02-21 14:18:00,32.0,10.4,29.78,NNW,344,18.4,-999.9,41,-99.99,,,-99.99,,2013-02-21 19:18:00,
2013-02-21 14:24:00,32.0,10.4,29.78,NNW,335,18.4,-999.9,41,-99.99,,,-99.99,,2013-02-21 19:24:00,
2013-02-21 14:30:00,32.0,10.4,29.79,NNW,329,10.4,-999.9,41,-99.99,,,-99.99,,2013-02-21 19:30:00,
2013-02-21 14:38:00,32.0,10.4,29.79,NNW,329,10.4,-999.9,41,-99.99,,,-99.99,,2013-02-21 19:38:00,
2013-02-21 14:44:00,32.0,10.4,29.79,NNW,340,12.7,-999.9,41,-99.99,,,-99.99,,2013-02-21 19:44:00,
2013-02-21 14:50:00,32.0,10.4,29.79,NW,324,12.7,-999.9,41,-99.99,,,-99.99,,2013-02-21 19:50:00,
2013-02-21 14:58:00,32.0,10.4,29.79,NW,324,12.7,-999.9,41,-99.99,,,-99.99,,2013-02-21 19:58:00,
2013-02-21 15:10:00,32.0,12.2,29.79,NNW,346,11.5,-999.9,44,-99.99,,,-99.99,,2013-02-21 20:10:00,
2013-02-21 15:17:00,32.0,12.2,29.79,NNW,346,11.5,-999.9,44,-99.99,,,-99.99,,2013-02-21 20:17:00,
2013-02-21 15:23:00,32.0,12.2,29.80,NNW,338,18.4,-999.9,44,-99.99,,,-99.99,,2013-02-21 20:23:00,
2013-02-21 15:30:00,32.0,12.2,29.80,North,354,10.4,-999.9,44,-99.99,,,-99.99,,2013-02-21 20:30:00,
2013-02-21 15:38:00,32.0,12.2,29.80,North,354,10.4,-999.9,44,-99.99,,,-99.99,,2013-02-21 20:38:00,
2013-02-21 15:44:00,32.0,12.2,29.80,North,355,19.6,-999.9,44,-99.99,,,-99.99,,2013-02-21 20:44:00,
2013-02-21 15:50:00,32.0,12.2,29.80,NNW,341,10.4,-999.9,44,-99.99,,,-99.99,,2013-02-21 20:50:00,
2013-02-21 15:58:00,32.0,12.2,29.80,NNW,341,10.4,-999.9,44,-99.99,,,-99.99,,2013-02-21 20:58:00,
2013-02-21 16:04:00,32.0,12.2,29.81,North,349,2.3,-999.9,44,-99.99,,,-99.99,,2013-02-21 21:04:00,
2013-02-21 16:10:00,32.0,12.2,29.81,North,349,2.3,-999.9,44,-99.99,,,-99.99,,2013-02-21 21:10:00,
2013-02-21 16:18:00,32.0,12.2,29.83,North,11,9.2,-999.9,44,-99.99,,,-99.99,,2013-02-21 21:18:00,
2013-02-21 16:24:00,32.0,12.2,29.84,NNW,348,9.2,-999.9,44,-99.99,,,-99.99,,2013-02-21 21:24:00,
2013-02-21 16:30:00,32.0,12.2,29.86,North,5,4.6,-999.9,44,-99.99,,,-99.99,,2013-02-21 21:30:00,
2013-02-21 16:38:00,32.0,12.2,29.86,North,5,4.6,-999.9,44,-99.99,,,-99.99,,2013-02-21 21:38:00,
2013-02-21 16:44:00,30.2,10.4,29.87,North,358,15.0,-999.9,44,-99.99,,,-99.99,,2013-02-21 21:44:00,
2013-02-21 16:50:00,30.2,10.4,29.88,NNW,335,13.8,-999.9,44,-99.99,,,-99.99,,2013-02-21 21:50:00,
2013-02-21 16:57:00,30.2,10.4,29.88,NNW,335,13.8,-999.9,44,-99.99,,,-99.99,,2013-02-21 21:57:00,
2013-02-21 17:04:00,30.2,12.2,29.88,North,351,13.8,-999.9,47,-99.99,,,-99.99,,2013-02-21 22:04:00,
2013-02-21 17:10:00,30.2,12.2,29.88,North,3,10.4,-999.9,47,-99.99,,,-99.99,,2013-02-21 22:10:00,
2013-02-21 17:18:00,30.2,12.2,29.88,North,3,10.4,-999.9,47,-99.99,,,-99.99,,2013-02-21 22:18:00,
2013-02-21 17:24:00,30.2,12.2,29.88,NNW,333,10.4,-999.9,47,-99.99,,,-99.99,,2013-02-21 22:24:00,
2013-02-21 17:30:00,30.2,12.2,29.89,North,2,5.8,-999.9,47,-99.99,,,-99.99,,2013-02-21 22:30:00,
2013-02-21 17:37:00,30.2,12.2,29.89,North,2,5.8,-999.9,47,-99.99,,,-99.99,,2013-02-21 22:37:00,
2013-02-21 17:43:00,30.2,14.0,29.90,North,353,15.0,-999.9,51,-99.99,,,-99.99,,2013-02-21 22:43:00,
2013-02-21 17:49:00,30.2,14.0,29.90,North,353,15.0,-999.9,51,-99.99,,,-99.99,,2013-02-21 22:49:00,
2013-02-21 17:57:00,28.4,12.2,29.91,North,352,8.1,-999.9,51,-99.99,,,-99.99,,2013-02-21 22:57:00,
2013-02-21 18:03:00,28.4,12.2,29.92,North,2,17.3,-999.9,51,-99.99,,,-99.99,,2013-02-21 23:03:00,
2013-02-21 18:09:00,28.4,12.2,29.92,North,2,17.3,-999.9,51,-99.99,,,-99.99,,2013-02-21 23:09:00,
2013-02-21 18:17:00,28.4,12.2,29.93,North,352,18.4,-999.9,51,-99.99,,,-99.99,,2013-02-21 23:17:00,
2013-02-21 18:23:00,28.4,12.2,29.93,North,11,18.4,-999.9,51,-99.99,,,-99.99,,2013-02-21 23:23:00,
2013-02-21 18:29:00,28.4,12.2,29.93,North,11,18.4,-999.9,51,-99.99,,,-99.99,,2013-02-21 23:29:00,
2013-02-21 18:34:00,28.4,12.2,29.93,North,2,13.8,-999.9,51,-99.99,,,-99.99,,2013-02-21 23:34:00,
2013-02-21 18:40:00,28.4,12.2,29.93,North,356,23.0,-999.9,51,-99.99,,,-99.99,,2013-02-21 23:40:00,
2013-02-21 18:48:00,28.4,12.2,29.93,North,356,23.0,-999.9,51,-99.99,,,-99.99,,2013-02-21 23:48:00,
2013-02-21 18:53:00,28.4,14.0,29.94,North,355,12.7,-999.9,55,-99.99,,,-99.99,,2013-02-21 23:53:00,
2013-02-21 18:59:00,28.4,14.0,29.94,North,355,12.7,-999.9,55,-99.99,,,-99.99,,2013-02-21 23:59:00,
2013-02-21 19:07:00,26.6,12.2,29.95,North,358,15.0,-999.9,55,-99.99,,,-99.99,,2013-02-22 00:07:00,
2013-02-21 19:13:00,26.6,12.2,29.96,NNE,14,10.4,-999.9,55,-99.99,,,-99.99,,2013-02-22 00:13:00,
2013-02-21 19:19:00,26.6,12.2,29.96,NNE,14,10.4,-999.9,55,-99.99,,,-99.99,,2013-02-22 00:19:00,
2013-02-21 20:12:00,26.6,14.0,30.03,North,351,12.7,-999.9,59,-99.99,,,-99.99,,2013-02-22 01:12:00,
2013-02-21 20:20:00,26.6,14.0,30.05,North,356,13.8,-999.9,59,-99.99,,,-99.99,,2013-02-22 01:20:00,
2013-02-21 20:28:00,26.6,14.0,30.05,North,356,13.8,-999.9,59,-99.99,,,-99.99,,2013-02-22 01:28:00,
2013-02-21 20:34:00,26.6,14.0,30.06,NNW,338,11.5,-999.9,59,-99.99,,,-99.99,,2013-02-22 01:34:00,
2013-02-21 20:40:00,26.6,14.0,30.06,NNW,338,11.5,-999.9,59,-99.99,,,-99.99,,2013-02-22 01:40:00,
2013-02-21 20:48:00,26.6,14.0,30.06,NNW,348,20.7,-999.9,59,-99.99,,,-99.99,,2013-02-22 01:48:00,
2013-02-21 20:54:00,24.8,12.2,30.06,North,358,20.7,-999.9,59,-99.99,,,-99.99,,2013-02-22 01:54:00,
2013-02-21 21:00:00,24.8,12.2,30.07,North,354,11.5,-999.9,59,-99.99,,,-99.99,,2013-02-22 02:00:00,
2013-02-21 21:08:00,24.8,12.2,30.07,North,354,11.5,-999.9,59,-99.99,,,-99.99,,2013-02-22 02:08:00,
2013-02-21 21:14:00,24.8,12.2,30.08,North,350,8.1,-999.9,59,-99.99,,,-99.99,,2013-02-22 02:14:00,
2013-02-21 21:20:00,24.8,12.2,30.08,NNE,22,9.2,-999.9,59,-99.99,,,-99.99,,2013-02-22 02:20:00,
2013-02-21 21:28:00,24.8,12.2,30.08,NNE,22,9.2,-999.9,59,-99.99,,,-99.99,,2013-02-22 02:28:00,
2013-02-21 21:34:00,24.8,12.2,30.08,North,7,16.1,-999.9,59,-99.99,,,-99.99,,2013-02-22 02:34:00,
2013-02-21 21:40:00,24.8,14.0,30.08,North,6,13.8,-999.9,64,-99.99,,,-99.99,,2013-02-22 02:40:00,
2013-02-21 21:47:00,24.8,14.0,30.08,North,6,13.8,-999.9,64,-99.99,,,-99.99,,2013-02-22 02:47:00,
2013-02-21 21:54:00,24.8,14.0,30.09,North,5,10.4,-999.9,64,-99.99,,,-99.99,,2013-02-22 02:54:00,
2013-02-21 22:00:00,24.8,14.0,30.10,NNE,14,16.1,-999.9,64,-99.99,,,-99.99,,2013-02-22 03:00:00,
2013-02-21 22:07:00,24.8,14.0,30.10,NNE,14,16.1,-999.9,64,-99.99,,,-99.99,,2013-02-22 03:07:00,
2013-02-21 22:14:00,24.8,14.0,30.10,North,7,18.4,-999.9,64,-99.99,,,-99.99,,2013-02-22 03:14:00,
2013-02-21 22:20:00,24.8,14.0,30.09,North,1,15.0,-999.9,64,-99.99,,,-99.99,,2013-02-22 03:20:00,
2013-02-21 22:28:00,24.8,14.0,30.09,North,1,15.0,-999.9,64,-99.99,,,-99.99,,2013-02-22 03:28:00,
2013-02-21 22:33:00,24.8,14.0,30.09,North,7,13.8,-999.9,64,-99.99,,,-99.99,,2013-02-22 03:33:00,
2013-02-21 22:40:00,24.8,14.0,30.09,North,1,15.0,-999.9,64,-99.99,,,-99.99,,2013-02-22 03:40:00,
2013-02-21 22:48:00,24.8,14.0,30.09,North,1,15.0,-999.9,64,-99.99,,,-99.99,,2013-02-22 03:48:00,
2013-02-21 22:54:00,24.8,14.0,30.10,North,350,16.1,-999.9,64,-99.99,,,-99.99,,2013-02-22 03:54:00,
2013-02-21 23:00:00,24.8,14.0,30.11,North,4,9.2,-999.9,64,-99.99,,,-99.99,,2013-02-22 04:00:00,
2013-02-21 23:10:00,24.8,14.0,30.11,North,349,18.4,-999.9,64,-99.99,,,-99.99,,2013-02-22 04:10:00,
2013-02-21 23:17:00,24.8,14.0,30.11,North,349,18.4,-999.9,64,-99.99,,,-99.99,,2013-02-22 04:17:00,
2013-02-21 23:23:00,24.8,14.0,30.10,NNE,21,9.2,-999.9,64,-99.99,,,-99.99,,2013-02-22 04:23:00,
2013-02-21 23:30:00,24.8,15.8,30.11,North,7,13.8,-999.9,69,-99.99,,,-99.99,,2013-02-22 04:30:00,
2013-02-21 23:38:00,24.8,15.8,30.11,North,7,13.8,-999.9,69,-99.99,,,-99.99,,2013-02-22 04:38:00,
2013-02-21 23:44:00,24.8,15.8,30.11,NNE,21,16.1,-999.9,69,-99.99,,,-99.99,,2013-02-22 04:44:00,
2013-02-21 23:50:00,24.8,15.8,30.11,NNE,21,16.1,-999.9,69,-99.99,,,-99.99,,2013-02-22 04:50:00,
2013-02-21 23:58:00,24.8,15.8,30.11,NNE,14,15.0,-999.9,69,-99.99,,,-99.99,,2013-02-22 04:58:00,